Change the Weather History Date:

Friday, April 4, 2014

  Actual Average Record
Temperature  
Mean Temperature 78 °F -  
Max Temperature 82 °F - - ()
Min Temperature 75 °F - - ()
Cooling Degree Days 14    
Growing Degree Days 28 (Base 50)    
Moisture  
Dew Point 73 °F    
Average Humidity 81    
Maximum Humidity 89    
Minimum Humidity 69    
Precipitation  
Precipitation 0.02 in - - ()
Sea Level Pressure  
Sea Level Pressure 29.94 in    
Wind  
Wind Speed 18 mph ()    
Max Wind Speed 23 mph    
Max Gust Speed -    
Visibility 6.2 miles    
Events      
T = Trace of Precipitation, MM = Missing Value Source: Averaged Metar Reports

Daily Weather History Graph

Daily Weather History Graph

Search for Another Location

Airport or City:

Trip Planner

Search our weather history database for the weather conditions in past years. The results will help you decide how hot, cold, wet, or windy it might be!

Date:

Astronomy

Apr. 04, 2014 Rise Set
Actual Time 6:12 AM AEST 6:02 PM AEST
Civil Twilight 5:49 AM AEST 6:24 PM AEST
Nautical Twilight 5:24 AM AEST 6:50 PM AEST
Astronomical Twilight 4:58 AM AEST 7:15 PM AEST
Moon 10:04 AM AEST (4/4) 9:29 PM AEST (4/4)
Length of Visible Light 12h 34m
Length of Day
11h 50m
Waxing Crescent, 20% of the Moon is Illuminated
Apr 4
Waxing Crescent
Apr 7
First Quarter
Apr 15
Full
Apr 22
Last Quarter
Apr 29
New

Hourly Weather History & Observations

Time (AEST) Temp. Heat Index Dew Point Humidity Pressure Visibility Wind Dir Wind Speed Gust Speed Precip Events Conditions
12:00 AM 77 °F - 71 °F 77% 29.95 in - SE 19.6 mph - -  
12:00 AM 77.0 °F - 71.6 °F 83% 29.95 in 6.2 mi SE 19.6 mph - N/A   Unknown
12:30 AM 77.0 °F - 71.6 °F 83% 29.95 in 6.2 mi SE 19.6 mph - N/A   Unknown
1:00 AM 77.0 °F - 71.6 °F 83% 29.95 in 6.2 mi SE 18.4 mph - N/A   Unknown
1:30 AM 77.0 °F - 71.6 °F 83% 29.92 in 6.2 mi SE 18.4 mph - N/A   Unknown
2:00 AM 77.0 °F - 71.6 °F 83% 29.92 in 6.2 mi SE 17.3 mph - N/A   Unknown
2:30 AM 77.0 °F - 71.6 °F 83% 29.92 in 6.2 mi SE 18.4 mph - N/A   Unknown
3:00 AM 76 °F - 72 °F 85% 29.91 in - SE 17.3 mph - -  
3:00 AM 77.0 °F - 71.6 °F 83% 29.92 in 6.2 mi SE 17.3 mph - N/A   Unknown
3:30 AM 77.0 °F - 71.6 °F 83% 29.89 in 6.2 mi SE 20.7 mph - N/A   Unknown
4:00 AM 77.0 °F - 71.6 °F 83% 29.89 in 6.2 mi SE 20.7 mph - N/A   Unknown
4:30 AM 77.0 °F - 71.6 °F 83% 29.92 in 6.2 mi SE 18.4 mph - N/A   Unknown
5:00 AM 77.0 °F - 73.4 °F 89% 29.92 in 6.2 mi SE 18.4 mph - N/A   Unknown
5:30 AM 77.0 °F - 73.4 °F 89% 29.92 in 6.2 mi SE 17.3 mph - N/A   Unknown
6:00 AM 77 °F - 73 °F 84% 29.92 in - ESE 18.4 mph - -  
6:00 AM 77.0 °F - 73.4 °F 89% 29.92 in 6.2 mi ESE 18.4 mph - N/A   Unknown
6:30 AM 77.0 °F - 73.4 °F 89% 29.92 in 6.2 mi ESE 18.4 mph - N/A   Unknown
7:00 AM 77.0 °F - 73.4 °F 89% 29.95 in 6.2 mi ESE 19.6 mph - N/A   Unknown
7:30 AM 78.8 °F - 71.6 °F 78% 29.95 in 6.2 mi SE 19.6 mph - N/A   Unknown
8:00 AM 78.8 °F - 73.4 °F 83% 29.95 in 6.2 mi ESE 19.6 mph - N/A   Unknown
8:30 AM 80.6 °F 85.4 °F 73.4 °F 79% 29.98 in 6.2 mi SE 19.6 mph - N/A   Unknown
9:00 AM 79 °F - 72 °F 73% 29.97 in - ESE 23.0 mph - -  
9:00 AM 78.8 °F - 71.6 °F 78% 29.98 in 6.2 mi ESE 23.0 mph - N/A   Unknown
9:30 AM 80.6 °F 85.4 °F 73.4 °F 79% 29.98 in 6.2 mi ESE 20.7 mph - N/A   Unknown
10:00 AM 82.4 °F 88.2 °F 73.4 °F 74% 29.98 in 6.2 mi ESE 23.0 mph - N/A   Unknown
10:30 AM 82.4 °F 88.2 °F 73.4 °F 74% 29.98 in 6.2 mi ESE 21.9 mph - N/A   Unknown
11:00 AM 82.4 °F 88.2 °F 73.4 °F 74% 29.95 in 6.2 mi SE 18.4 mph - N/A   Unknown
11:30 AM 82.4 °F 88.2 °F 73.4 °F 74% 29.95 in 6.2 mi ESE 19.6 mph - N/A   Unknown
12:00 PM 82 °F - 73 °F 69% 29.94 in - ESE 18.4 mph - -  
12:00 PM 82.4 °F 88.2 °F 73.4 °F 74% 29.95 in 6.2 mi ESE 18.4 mph - N/A   Unknown
12:30 PM 80.6 °F 85.4 °F 73.4 °F 79% 29.92 in 6.2 mi SE 20.7 mph - N/A   Unknown
2:00 PM 80.6 °F 85.4 °F 73.4 °F 79% 29.92 in 6.2 mi SE 18.4 mph - N/A   Unknown
2:30 PM 80.6 °F 85.4 °F 73.4 °F 79% 29.89 in 6.2 mi SE 20.7 mph - N/A   Unknown
3:00 PM 81 °F - 72 °F 69% 29.90 in - SE 19.6 mph - -  
3:00 PM 80.6 °F 85.4 °F 73.4 °F 79% 29.89 in 6.2 mi SE 19.6 mph - N/A   Unknown
3:30 PM 80.6 °F 85.4 °F 73.4 °F 79% 29.89 in 6.2 mi ESE 20.7 mph - N/A   Unknown
4:00 PM 78.8 °F - 73.4 °F 83% 29.92 in 6.2 mi ESE 21.9 mph - N/A   Unknown
4:30 PM 80.6 °F 85.4 °F 73.4 °F 79% 29.92 in 6.2 mi ESE 18.4 mph - N/A   Unknown
5:00 PM 78.8 °F - 73.4 °F 83% 29.92 in 6.2 mi ESE 21.9 mph - N/A   Unknown
5:30 PM 78.8 °F - 73.4 °F 83% 29.92 in 6.2 mi ESE 19.6 mph - N/A   Unknown
6:00 PM 79 °F - 73 °F 76% 29.94 in - ESE 19.6 mph - -  
6:00 PM 78.8 °F - 73.4 °F 83% 29.92 in 6.2 mi ESE 19.6 mph - N/A   Unknown
6:30 PM 78.8 °F - 73.4 °F 83% 29.95 in 6.2 mi ESE 20.7 mph - N/A   Unknown
7:00 PM 78.8 °F - 73.4 °F 83% 29.95 in 6.2 mi ESE 20.7 mph - N/A   Unknown
7:30 PM 78.8 °F - 73.4 °F 83% 29.95 in 6.2 mi ESE 21.9 mph - N/A   Unknown
8:00 PM 78.8 °F - 71.6 °F 78% 29.95 in 6.2 mi ESE 21.9 mph - N/A   Unknown
8:30 PM 78.8 °F - 73.4 °F 83% 29.98 in 6.2 mi ESE 20.7 mph - N/A   Unknown
9:00 PM 79 °F - 73 °F 78% 29.99 in - ESE 18.4 mph - -  
9:00 PM 78.8 °F - 73.4 °F 83% 29.98 in 6.2 mi ESE 18.4 mph - N/A   Unknown
9:30 PM 78.8 °F - 73.4 °F 83% 29.98 in 6.2 mi ESE 19.6 mph - N/A   Unknown
10:00 PM 78.8 °F - 73.4 °F 83% 29.98 in 6.2 mi ESE 19.6 mph - N/A   Unknown
10:30 PM 78.8 °F - 73.4 °F 83% 29.98 in 6.2 mi ESE 20.7 mph - N/A   Unknown
11:00 PM 77.0 °F - 73.4 °F 89% 29.98 in 6.2 mi ESE 20.7 mph - N/A   Unknown
11:30 PM 77.0 °F - 73.4 °F 89% 29.98 in 6.2 mi ESE 21.9 mph - N/A   Unknown